GW4603 Weather Reports


Display with metric or nautical units.
time (UTC)temp
F
wind
direction
speed
MPH
gust
MPH
rain 1hr
in
rain 24hr
in
rain mn
in
humidity
%
barometer
mb
20260507210216 56 320 0.0 1.0 0.00 0.01 0.01 61 1012.0
20260507205712 57 243 5.0 8.0 0.00 0.01 0.01 59 1012.0
20260507205209 56 314 2.0 3.0 0.00 0.01 0.01 60 1012.1
20260507204705 55 65 4.0 6.0 0.00 0.01 0.01 63 1012.3
20260507204203 55 315 2.0 3.0 0.00 0.01 0.01 65 1012.1
20260507203701 55 208 3.0 4.0 0.00 0.01 0.01 63 1012.1
20260507203158 56 31 1.0 3.0 0.00 0.01 0.01 61 1012.0
20260507202653 55 337 0.0 6.0 0.00 0.01 0.01 65 1012.2
20260507202150 55 319 2.0 6.0 0.00 0.01 0.01 63 1012.1
20260507201645 55 266 4.0 6.0 0.00 0.01 0.01 63 1012.1
20260507201142 56 262 3.0 8.0 0.00 0.01 0.01 62 1012.2
20260507200638 55 289 5.0 6.0 0.00 0.01 0.01 64 1012.1
20260507200134 55 319 6.0 7.0 0.00 0.01 0.01 66 1012.4
20260507195631 56 312 4.0 10.0 0.00 0.01 0.01 65 1012.3
20260507195128 56 289 2.0 6.0 0.00 0.01 0.01 64 1012.8
20260507194625 55 308 5.0 8.0 0.00 0.01 0.01 70 1012.8
20260507194120 55 314 4.0 9.0 0.00 0.01 0.01 66 1012.7
20260507193618 53 312 1.0 6.0 0.00 0.01 0.01 67 1012.6
20260507193115 56 3 5.0 7.0 0.00 0.01 0.01 65 1012.7
20260507192611 57 277 0.0 3.0 0.00 0.01 0.01 68 1012.6
20260507192108 55 236 1.0 4.0 0.00 0.01 0.01 67 1013.0
20260507191603 52 292 3.0 6.0 0.00 0.01 0.01 72 1012.8
20260507191100 52 290 4.0 4.0 0.00 0.01 0.01 71 1013.0
20260507190558 53 332 5.0 7.0 0.00 0.01 0.01 70 1013.0
20260507190056 55 183 0.0 3.0 0.00 0.01 0.01 70 1013.2
20260507185554 53 318 2.0 7.0 0.00 0.01 0.01 73 1013.2
20260507185050 52 343 1.0 3.0 0.00 0.01 0.01 74 1013.1
20260507184549 52 299 3.0 6.0 0.00 0.01 0.01 72 1013.2
20260507184046 52 92 2.0 4.0 0.00 0.01 0.01 75 1013.6
20260507183542 51 344 3.0 6.0 0.00 0.01 0.01 73 1013.4
20260507183039 53 320 6.0 9.0 0.00 0.01 0.01 70 1013.4
20260507182536 52 337 1.0 6.0 0.00 0.01 0.01 73 1013.4
20260507182031 52 296 3.0 4.0 0.00 0.01 0.01 70 1013.3
20260507181529 52 324 4.0 9.0 0.00 0.01 0.01 71 1013.2
20260507181025 52 86 3.0 8.0 0.00 0.01 0.01 72 1013.1
20260507180521 53 300 2.0 4.0 0.00 0.01 0.01 71 1013.0
20260507180018 53 328 0.0 1.0 0.00 0.01 0.01 69 1013.2
20260507175515 53 33 0.0 3.0 0.00 0.01 0.01 70 1013.1
20260507175012 53 322 1.0 2.0 0.00 0.01 0.01 68 1013.2
20260507174509 53 312 2.0 4.0 0.00 0.01 0.01 67 1013.1
20260507174007 53 147 0.0 4.0 0.00 0.01 0.01 67 1013.1
20260507173504 52 35 2.0 8.0 0.00 0.01 0.01 67 1013.3
20260507173001 52 308 4.0 4.0 0.00 0.01 0.01 67 1013.3
20260507172457 53 271 4.0 4.0 0.00 0.01 0.01 68 1013.2
20260507171954 54 17 1.0 2.0 0.00 0.01 0.01 66 1013.1
20260507171449 52 261 3.0 7.0 0.00 0.01 0.01 65 1013.2
20260507170947 52 56 2.0 4.0 0.00 0.01 0.01 67 1013.2
20260507170443 52 285 6.0 7.0 0.00 0.01 0.01 64 1013.3
20260507165940 52 302 4.0 7.0 0.00 0.01 0.01 66 1013.4
20260507165436 51 318 3.0 6.0 0.00 0.01 0.01 68 1013.3
20260507164931 51 320 4.0 4.0 0.00 0.01 0.01 67 1013.5
20260507164429 51 242 2.0 3.0 0.00 0.01 0.01 67 1013.6
20260507163926 51 208 0.0 3.0 0.00 0.01 0.01 73 1013.5
20260507163423 51 183 2.0 3.0 0.00 0.01 0.01 66 1013.7
20260507162920 51 266 3.0 7.0 0.00 0.01 0.01 67 1013.5
20260507162415 50 284 4.0 7.0 0.00 0.01 0.01 67 1013.5
20260507161913 51 280 6.0 8.0 0.00 0.01 0.01 67 1013.5
20260507161409 52 153 2.0 2.0 0.00 0.01 0.01 65 1013.7
20260507160906 51 37 3.0 3.0 0.00 0.01 0.01 64 1013.6
20260507160401 53 297 7.0 8.0 0.00 0.01 0.01 63 1013.6
20260507155858 53 72 2.0 4.0 0.00 0.01 0.01 65 1013.5
20260507155353 51 72 2.0 3.0 0.00 0.01 0.01 69 1013.6
20260507154850 51 219 0.0 3.0 0.00 0.01 0.01 68 1013.6
20260507154348 50 16 1.0 4.0 0.00 0.01 0.01 71 1013.8
20260507153845 49 323 2.0 6.0 0.00 0.01 0.01 69 1013.7
20260507153341 50 300 7.0 9.0 0.00 0.01 0.01 69 1013.8
20260507152838 50 291 1.0 2.0 0.00 0.01 0.01 75 1013.8
20260507152334 50 281 6.0 7.0 0.00 0.01 0.01 72 1013.7
20260507151831 50 99 1.0 3.0 0.00 0.01 0.01 74 1013.7
20260507151327 50 260 4.0 4.0 0.00 0.01 0.01 75 1013.7
20260507150824 51 67 1.0 1.0 0.00 0.01 0.01 75 1013.8
20260507150320 50 36 0.0 1.0 0.00 0.01 0.01 81 1013.8
20260507145816 49 272 1.0 3.0 0.00 0.01 0.01 77 1013.8
20260507145313 49 259 2.0 2.0 0.00 0.01 0.01 76 1014.1
20260507144810 49 279 0.0 1.0 0.00 0.01 0.01 80 1014.1
20260507144307 48 310 2.0 4.0 0.00 0.01 0.01 80 1014.0
20260507143804 49 297 1.0 4.0 0.00 0.01 0.01 80 1014.0
20260507143301 48 26 0.0 2.0 0.00 0.01 0.01 81 1013.8
20260507142757 48 308 1.0 3.0 0.00 0.01 0.01 81 1014.0
20260507142254 48 296 3.0 3.0 0.00 0.01 0.01 82 1013.8
20260507141750 49 292 2.0 2.0 0.00 0.01 0.01 84 1013.8
20260507141247 48 312 2.0 2.0 0.00 0.01 0.01 87 1014.1
20260507140743 48 291 2.0 3.0 0.00 0.01 0.01 86 1014.1
20260507140241 48 305 1.0 4.0 0.00 0.01 0.01 86 1014.1
20260507135738 47 271 0.0 0.0 0.00 0.01 0.01 89 1014.1
20260507135235 47 242 3.0 4.0 0.00 0.01 0.01 86 1014.2
20260507134731 47 310 0.0 0.0 0.00 0.01 0.01 89 1014.2
20260507134228 46 290 0.0 0.0 0.00 0.01 0.01 90 1014.1
20260507133724 47 310 2.0 2.0 0.00 0.01 0.01 89 1014.4
20260507133221 46 98 0.0 1.0 0.00 0.01 0.01 90 1014.4
20260507132718 46 69 1.0 2.0 0.00 0.01 0.01 89 1014.4
20260507132215 46 320 0.0 0.0 0.00 0.01 0.01 90 1014.5
20260507131711 46 281 0.0 0.0 0.00 0.01 0.01 90 1014.4
20260507131209 46 254 0.0 0.0 0.00 0.01 0.01 91 1014.4
20260507130705 46 33 0.0 0.0 0.00 0.01 0.01 91 1014.3
20260507130203 45 334 0.0 0.0 0.00 0.01 0.01 92 1014.3
20260507125702 45 281 0.0 0.0 0.00 0.01 0.01 93 1014.4
20260507125159 45 267 0.0 0.0 0.00 0.01 0.01 93 1014.4
20260507124655 45 298 0.0 0.0 0.00 0.01 0.01 93 1014.5
20260507124153 45 326 0.0 0.0 0.00 0.01 0.01 94 1014.5
20260507123651 45 272 0.0 0.0 0.00 0.01 0.01 95 1014.5
20260507123148 45 271 0.0 0.0 0.00 0.01 0.01 94 1014.8
20260507122643 45 289 0.0 0.0 0.00 0.01 0.01 95 1014.5
20260507122139 45 289 0.0 0.0 0.00 0.01 0.01 95 1014.5
20260507121635 45 288 0.0 0.0 0.00 0.01 0.01 95 1014.5
20260507121131 45 289 0.0 0.0 0.00 0.01 0.01 96 1014.3
20260507120627 45 289 0.0 0.0 0.00 0.01 0.01 95 1014.3
20260507120124 45 289 0.0 0.0 0.00 0.01 0.01 96 1014.3
20260507115621 44 289 0.0 2.0 0.00 0.01 0.01 95 1014.3
20260507115116 45 249 1.0 1.0 0.00 0.01 0.01 95 1014.1
20260507114613 44 308 0.0 0.0 0.00 0.01 0.01 96 1014.0
20260507114110 44 301 2.0 2.0 0.00 0.01 0.01 96 1014.1
20260507113608 44 339 0.0 0.0 0.00 0.01 0.01 96 1014.1
20260507113104 44 292 0.0 0.0 0.00 0.01 0.01 96 1014.2
20260507112602 44 293 0.0 0.0 0.00 0.01 0.01 96 1014.1
20260507112058 44 294 0.0 0.0 0.00 0.01 0.01 96 1014.1
20260507111555 44 296 1.0 1.0 0.00 0.01 0.01 96 1014.2
20260507111052 44 297 0.0 0.0 0.00 0.01 0.01 96 1013.8
20260507110548 44 6 0.0 0.0 0.00 0.01 0.01 96 1013.6
20260507110045 44 292 0.0 0.0 0.00 0.01 0.01 96 1013.7
20260507105542 44 85 0.0 0.0 0.00 0.01 0.01 96 1013.7
20260507105038 44 85 0.0 1.0 0.00 0.01 0.01 96 1013.8
20260507104536 44 347 0.0 0.0 0.00 0.01 0.01 97 1013.7
20260507104032 44 328 0.0 0.0 0.00 0.01 0.01 97 1013.6
20260507103528 44 27 0.0 0.0 0.00 0.01 0.01 96 1013.6
20260507103025 45 20 0.0 0.0 0.00 0.01 0.01 97 1013.6
20260507102521 45 21 0.0 0.0 0.00 0.01 0.01 97 1013.7
20260507102017 45 337 0.0 0.0 0.00 0.01 0.01 98 1013.5
20260507101513 45 347 0.0 1.0 0.00 0.01 0.01 99 1013.4
20260507101010 46 2 0.0 0.0 0.00 0.01 0.01 99 1013.5
20260507100507 46 17 2.0 2.0 0.00 0.01 0.01 99 1013.3
20260507100005 46 290 0.0 0.0 0.00 0.01 0.01 99 1013.0
20260507095503 46 286 1.0 2.0 0.00 0.01 0.01 99 1013.1
20260507094959 46 292 0.0 1.0 0.00 0.01 0.01 99 1013.2
20260507094455 46 265 0.0 0.0 0.00 0.01 0.01 99 1013.0
20260507093953 46 268 1.0 1.0 0.00 0.01 0.01 99 1013.3
20260507093450 46 139 1.0 3.0 0.00 0.01 0.01 99 1013.4
20260507092948 46 313 0.0 0.0 0.00 0.01 0.01 99 1013.3
20260507092444 46 301 4.0 4.0 0.00 0.01 0.01 99 1013.5
20260507091941 46 294 2.0 3.0 0.00 0.01 0.01 99 1013.4
20260507091437 46 303 2.0 2.0 0.00 0.01 0.01 99 1013.4
20260507090933 47 235 0.0 0.0 0.00 0.01 0.01 99 1013.3
20260507090430 46 234 0.0 0.0 0.00 0.01 0.01 99 1013.3
20260507085926 47 191 0.0 0.0 0.00 0.01 0.01 99 1013.2
20260507085424 47 284 0.0 0.0 0.00 0.01 0.01 99 1013.2
20260507084921 47 284 0.0 0.0 0.00 0.01 0.01 99 1013.2
20260507084417 47 281 0.0 0.0 0.00 0.01 0.01 99 1013.3
20260507083915 47 285 0.0 1.0 0.00 0.01 0.01 99 1013.5
20260507083411 47 296 0.0 0.0 0.00 0.01 0.01 99 1013.4
20260507082907 47 91 0.0 2.0 0.00 0.01 0.01 99 1013.2
20260507082403 47 294 3.0 3.0 0.00 0.01 0.01 99 1013.4
20260507081900 47 25 0.0 1.0 0.00 0.01 0.01 99 1013.2
20260507081356 47 270 0.0 0.0 0.00 0.01 0.01 99 1013.3
20260507080853 47 259 0.0 0.0 0.00 0.01 0.01 99 1013.5
20260507080349 47 262 0.0 0.0 0.00 0.01 0.01 99 1013.5
20260507075844 47 281 0.0 0.0 0.00 0.01 0.01 99 1013.4
20260507075341 47 281 0.0 0.0 0.00 0.01 0.01 99 1013.4
20260507074837 47 280 0.0 0.0 0.00 0.01 0.01 99 1013.5
20260507074335 47 184 1.0 3.0 0.00 0.01 0.01 99 1013.3
20260507073832 47 61 0.0 0.0 0.00 0.01 0.01 99 1013.3
20260507073329 47 63 0.0 0.0 0.00 0.01 0.01 99 1013.3
20260507072826 47 63 0.0 0.0 0.00 0.01 0.01 99 1013.3
20260507072323 47 63 0.0 0.0 0.07 0.01 0.01 99 1013.1
20260507071821 47 58 0.0 0.0 0.00 0.00 0.00 99 1013.3
20260507071317 47 52 0.0 2.0 0.00 0.00 0.00 99 1013.2
20260507070814 47 4 0.0 0.0 0.00 0.00 0.00 99 1013.5
20260507070311 48 12 0.0 0.0 0.00 0.00 0.00 99 1013.5
20260507065808 48 140 1.0 1.0 0.00 0.00 0.00 99 1013.4
20260507065306 48 271 0.0 6.0 0.00 0.00 0.00 99 1013.5
20260507064801 48 284 0.0 0.0 0.00 0.00 0.00 99 1013.7
20260507064300 48 296 0.0 0.0 0.00 0.00 0.00 99 1013.6
20260507063758 48 14 0.0 2.0 0.00 0.00 0.00 99 1013.6
20260507063254 48 67 0.0 2.0 0.00 0.00 0.00 99 1013.6
20260507062751 49 11 0.0 0.0 0.00 0.00 0.00 99 1013.8
20260507062248 49 299 0.0 0.0 0.00 0.00 0.00 99 1013.8
20260507061746 48 267 0.0 0.0 0.00 0.00 0.00 99 1013.8
20260507061244 48 301 0.0 0.0 0.00 0.00 0.00 99 1013.8
20260507060742 49 278 0.0 0.0 0.00 0.00 0.00 99 1013.7
20260507060238 49 15 0.0 0.0 0.00 0.00 0.00 99 1013.6
20260507055734 49 104 0.0 0.0 0.00 0.00 0.00 99 1013.2
20260507055230 49 276 0.0 0.0 0.00 0.00 0.00 99 1013.7
20260507054726 49 72 0.0 0.0 0.00 0.00 0.00 99 1013.2
20260507054224 49 336 0.0 2.0 0.00 0.00 0.00 99 1013.8
20260507053721 49 296 3.0 6.0 0.00 0.00 0.00 99 1014.0
20260507053219 49 233 1.0 1.0 0.00 0.00 0.00 99 1013.8
20260507052718 49 303 0.0 2.0 0.00 0.00 0.00 99 1013.8
20260507052213 49 294 0.0 1.0 0.00 0.00 0.00 99 1013.8
20260507051711 49 307 1.0 3.0 0.00 0.00 0.00 99 1014.1
20260507051208 49 320 0.0 0.0 0.00 0.00 0.00 99 1014.1
20260507050704 49 302 1.0 2.0 0.00 0.00 0.00 99 1014.3
20260507050201 49 318 3.0 6.0 0.00 0.00 0.00 99 1014.0
20260507045658 49 307 0.0 1.0 0.00 0.00 0.00 99 1013.8
20260507045155 49 274 0.0 0.0 0.00 0.00 0.00 99 1014.1
20260507044652 49 313 1.0 4.0 0.00 0.00 0.00 99 1014.1
20260507044148 49 278 0.0 3.0 0.00 0.00 0.00 99 1014.2
20260507043644 50 310 4.0 7.0 0.00 0.00 0.00 99 1014.3
20260507043142 50 290 3.0 4.0 0.00 0.00 0.00 99 1014.1
20260507042638 50 301 4.0 4.0 0.00 0.00 0.00 99 1014.1
20260507042132 50 293 1.0 4.0 0.00 0.00 0.00 99 1014.0
20260507041630 50 327 2.0 7.0 0.00 0.00 0.00 99 1014.1
20260507041126 50 300 2.0 7.0 0.00 0.00 0.00 99 1014.0
20260507040624 51 308 4.0 6.0 0.00 0.00 0.00 99 1013.7
20260507040120 51 322 3.0 4.0 0.00 0.63 0.63 99 1013.7
20260507035616 51 42 0.0 3.0 0.00 0.63 0.63 99 1013.6
20260507035112 51 307 1.0 3.0 0.00 0.63 0.63 99 1013.6
20260507034609 51 308 3.0 4.0 0.00 0.63 0.63 99 1013.2
20260507034108 51 321 2.0 3.0 0.00 0.63 0.63 99 1013.8
20260507033606 51 297 0.0 2.0 0.00 0.63 0.63 99 1013.4
20260507033102 51 331 2.0 2.0 0.00 0.63 0.63 99 1013.4
20260507032559 51 325 0.0 1.0 0.00 0.63 0.63 99 1013.2
20260507032055 51 317 1.0 3.0 0.00 0.63 0.63 99 1012.4
20260507031552 51 229 0.0 1.0 0.00 0.63 0.63 99 1012.1
20260507031049 51 139 0.0 2.0 0.00 0.63 0.63 99 1012.2
20260507030545 51 146 0.0 1.0 0.00 0.63 0.63 99 1012.7
20260507030043 51 130 3.0 6.0 0.00 0.63 0.63 99 1013.2
20260507025541 51 130 3.0 3.0 0.00 0.63 0.63 99 1013.8
20260507025038 52 25 0.0 0.0 0.00 0.63 0.63 99 1014.3
20260507024535 52 302 0.0 0.0 0.00 0.63 0.63 99 1014.8
20260507024032 52 286 0.0 0.0 0.00 0.63 0.63 99 1014.3
20260507023527 52 261 0.0 0.0 0.07 0.63 0.63 99 1014.1
20260507023026 52 253 0.0 0.0 0.07 0.63 0.63 99 1014.3
20260507022522 52 32 1.0 2.0 0.00 0.62 0.62 99 1014.4
20260507022017 52 73 0.0 1.0 0.00 0.62 0.62 99 1014.8
20260507021514 52 41 7.0 10.0 0.00 0.62 0.62 99 1015.0
20260507021010 53 316 6.0 7.0 0.05 0.62 0.62 99 1015.2
20260507020508 53 322 3.0 3.0 0.05 0.62 0.62 99 1014.5
20260507020004 53 135 2.0 3.0 0.00 0.61 0.61 99 1013.7
20260507015503 53 9 0.0 0.0 0.07 0.61 0.61 99 1014.1
20260507015000 53 320 1.0 1.0 0.00 0.60 0.60 99 1014.3
20260507014457 52 315 2.0 2.0 0.00 0.60 0.60 99 1013.6
20260507013953 52 184 1.0 3.0 0.00 0.60 0.60 99 1013.5
20260507013449 52 167 2.0 2.0 0.00 0.60 0.60 99 1013.2
20260507012947 52 236 1.0 1.0 0.00 0.60 0.60 99 1013.5
20260507012443 52 271 0.0 1.0 0.00 0.60 0.60 99 1013.5
20260507011940 53 283 0.0 0.0 0.00 0.60 0.60 99 1013.6
20260507011437 52 242 2.0 2.0 0.00 0.60 0.60 99 1012.9
20260507010937 53 300 2.0 2.0 0.00 0.60 0.60 99 1013.4
20260507010432 53 240 0.0 1.0 0.00 0.60 0.60 99 1013.3
20260507005929 53 17 0.0 0.0 0.00 0.60 0.60 99 1013.1
20260507005426 53 301 2.0 3.0 0.00 0.60 0.60 99 1013.2
20260507004923 53 259 0.0 0.0 0.00 0.60 0.60 99 1013.0
20260507004420 53 303 0.0 0.0 0.00 0.60 0.60 99 1013.0
20260507003917 53 146 0.0 0.0 0.00 0.60 0.60 99 1012.6
20260507003412 53 137 0.0 0.0 0.00 0.60 0.60 99 1012.2
20260507002908 53 319 0.0 0.0 0.00 0.60 0.60 99 1012.7
20260507002404 53 293 0.0 0.0 0.00 0.60 0.60 99 1012.8
20260507001902 53 292 0.0 0.0 0.00 0.60 0.60 99 1012.6
20260507001358 53 293 0.0 0.0 0.00 0.60 0.60 99 1012.4
20260507000855 53 292 0.0 0.0 0.00 0.60 0.60 99 1013.2
20260507000350 53 291 0.0 0.0 0.00 0.60 0.60 99 1013.0
20260506235847 53 245 0.0 0.0 0.00 0.60 0.60 99 1013.0
20260506235344 53 245 0.0 0.0 0.00 0.60 0.60 99 1012.9
20260506234840 53 245 0.0 0.0 0.05 0.60 0.60 99 1012.8
20260506234338 53 141 0.0 0.0 0.05 0.60 0.60 99 1012.8
20260506233835 53 21 0.0 1.0 0.07 0.59 0.59 99 1013.0
20260506233331 53 259 0.0 1.0 0.07 0.59 0.59 99 1013.1
20260506232828 53 294 0.0 1.0 0.05 0.58 0.58 99 1013.1
20260506232324 53 309 2.0 3.0 0.12 0.58 0.58 99 1012.8
20260506231820 53 273 0.0 0.0 0.12 0.57 0.57 99 1012.7
20260506231318 53 10 0.0 0.0 0.05 0.56 0.56 99 1012.4
20260506230815 53 304 0.0 0.0 0.00 0.55 0.55 99 1012.6
20260506230312 53 343 0.0 0.0 0.00 0.55 0.55 99 1012.7
20260506225808 53 308 2.0 3.0 0.00 0.55 0.55 99 1013.0
20260506225306 54 279 0.0 0.0 0.00 0.55 0.55 99 1012.8
20260506224802 53 311 0.0 2.0 0.00 0.55 0.55 99 1012.4
20260506224259 54 309 1.0 3.0 0.00 0.55 0.55 99 1012.6
20260506223756 54 298 0.0 0.0 0.00 0.55 0.55 99 1012.6
20260506223251 54 345 0.0 0.0 0.00 0.55 0.55 99 1012.2
20260506222748 54 305 1.0 2.0 0.07 0.55 0.55 99 1012.3
20260506222244 54 312 0.0 0.0 0.07 0.55 0.55 99 1012.4
20260506221742 54 301 0.0 0.0 0.00 0.54 0.54 99 1012.4
20260506221240 54 319 2.0 2.0 0.00 0.54 0.54 99 1012.4
20260506220737 54 314 3.0 4.0 0.00 0.54 0.54 99 1012.9
20260506220231 54 313 1.0 2.0 0.00 0.54 0.54 99 1012.7
20260506215729 54 285 2.0 4.0 0.00 0.54 0.54 99 1012.4
20260506215224 54 303 5.0 6.0 0.00 0.54 0.54 99 1012.7
20260506214721 55 58 0.0 1.0 0.00 0.54 0.54 99 1012.4
20260506214218 55 154 1.0 3.0 0.00 0.54 0.54 99 1012.3
20260506213716 55 352 0.0 1.0 0.00 0.54 0.54 99 1012.4
20260506213213 55 308 0.0 4.0 0.00 0.54 0.54 99 1012.7
20260506212710 55 302 3.0 3.0 0.00 0.54 0.54 99 1012.4
20260506212206 55 305 5.0 6.0 0.00 0.54 0.54 98 1012.3
20260506211701 55 319 4.0 8.0 0.00 0.54 0.54 98 1012.2
20260506211158 56 324 4.0 4.0 0.00 0.54 0.54 99 1012.3
20260506210655 57 307 5.0 8.0 0.00 0.54 0.54 98 1012.2